Weather History for Montreal Mirabel, QC

Change the Weather History Date:

Wednesday, October 13, 2010

  Actual Average Record
Temperature  
Mean Temperature 44 °F -  
Max Temperature 57 °F 53 °F 66 °F (2013)
Min Temperature 32 °F 36 °F 24 °F (2012)
Degree Days  
Heating Degree Days 20    
Moisture  
Dew Point 33 °F    
Average Humidity 63    
Maximum Humidity 81    
Minimum Humidity 41    
Precipitation  
Precipitation 0.00 in - - ()
Sea Level Pressure  
Sea Level Pressure 30.02 in    
Wind  
Wind Speed 2 mph ()    
Max Wind Speed 8 mph    
Max Gust Speed -    
Averages and records for this station are not official NWS values.
T = Trace of Precipitation, MM = Missing Value Source: Averaged Metar Reports

Daily Weather History Graph

Daily Weather History Graph

Search for Another Location

Airport:

Trip Planner

Search our weather history database for the weather conditions in past years. The results will help you decide how hot, cold, wet, or windy it might be!

Date:

Astronomy

Oct. 13, 2010 Rise Set
Actual Time 7:09 AM EDT 6:14 PM EDT
Civil Twilight 6:40 AM EDT 6:43 PM EDT
Nautical Twilight 6:05 AM EDT 7:18 PM EDT
Astronomical Twilight 5:31 AM EDT 7:52 PM EDT
Moon 1:43 PM EDT (10/13) 10:36 PM EDT (10/13)
Length of Visible Light 12h 03m
Length of Day
11h 04m
Waxing Crescent, 38% of the Moon is Illuminated
Oct 13
Waxing Crescent
Oct 14
First Quarter
Oct 22
Full
Oct 30
Last Quarter
Nov 6
New

Hourly Weather History & Observations

Time (EDT) Temp. Windchill Dew Point Humidity Pressure Visibility Wind Dir Wind Speed Gust Speed Precip Events Conditions
12:00 AM 39.2 °F 37.0 °F 28.4 °F 65% 29.99 in 25.0 mi WSW 3.5 mph - N/A   Partly Cloudy
1:00 AM 37.4 °F 33.8 °F 28.4 °F 70% 30.00 in 25.0 mi West 4.6 mph - N/A   Partly Cloudy
3:00 AM 35.6 °F - 28.4 °F 75% 30.01 in 25.0 mi Calm Calm - N/A   Partly Cloudy
4:00 AM 35.6 °F - 26.6 °F 70% 30.01 in 25.0 mi Calm Calm - N/A   Partly Cloudy
5:00 AM 32.0 °F - 24.8 °F 75% 30.01 in 25.0 mi Calm Calm - N/A   Partly Cloudy
6:00 AM 32.0 °F - 26.6 °F 80% 30.02 in 25.0 mi Calm Calm - N/A   Partly Cloudy
7:00 AM 32.0 °F - 24.8 °F 75% 30.04 in 25.0 mi Calm Calm - N/A   Clear
8:00 AM 33.8 °F - 26.6 °F 75% 30.06 in 35.0 mi Calm Calm - N/A   Partly Cloudy
9:00 AM 39.2 °F - 32.0 °F 75% 30.07 in 25.0 mi Calm Calm - N/A   Partly Cloudy
10:00 AM 44.6 °F - 39.2 °F 81% 30.07 in 25.0 mi Calm Calm - N/A   Partly Cloudy
11:00 AM 51.8 °F - 39.2 °F 62% 30.06 in 25.0 mi Calm Calm - N/A   Partly Cloudy
12:00 PM 51.8 °F - 37.4 °F 58% 30.06 in 45.0 mi Calm Calm - N/A   Partly Cloudy
1:00 PM 55.4 °F - 37.4 °F 51% 30.04 in 25.0 mi WSW 4.6 mph - N/A   Partly Cloudy
2:00 PM 55.4 °F - 37.4 °F 51% 30.01 in 25.0 mi SSW 4.6 mph - N/A   Partly Cloudy
3:00 PM 57.2 °F - 39.2 °F 51% 30.00 in 40.0 mi SW 6.9 mph - N/A   Partly Cloudy
4:00 PM 57.2 °F - 37.4 °F 48% 30.00 in 45.0 mi SSW 8.1 mph - N/A   Partly Cloudy
5:00 PM 57.2 °F - 33.8 °F 41% 29.99 in 45.0 mi SW 5.8 mph - N/A   Scattered Clouds
6:00 PM 51.8 °F - 32.0 °F 47% 30.00 in 45.0 mi SW 5.8 mph - N/A   Mostly Cloudy
7:00 PM 48.2 °F - 32.0 °F 54% 30.01 in 25.0 mi SSW 4.6 mph - N/A   Mostly Cloudy
8:00 PM 48.2 °F - 32.0 °F 54% 30.02 in 25.0 mi SW 2.3 mph - N/A   Mostly Cloudy
9:00 PM 48.2 °F - 33.8 °F 58% 30.02 in 25.0 mi Calm Calm - N/A   Overcast
10:00 PM 48.2 °F - 35.6 °F 62% 30.02 in 25.0 mi Calm Calm - N/A   Mostly Cloudy
11:00 PM 48.2 °F - 35.6 °F 62% 30.01 in 25.0 mi Calm Calm - N/A   Mostly Cloudy